Wiscasset, ME

9:43 PM EDT on July 27, 2017 (GMT -0400)
Wiscasset

Weather History for KIWI - March, 2013

Change the Weather History Date:

Thursday, March 21, 2013

  Actual Average Record
Temperature  
Mean Temperature 28 °F -  
Max Temperature 37 °F 39 °F 81 °F (2012)
Min Temperature 19 °F 22 °F 10 °F (2007)
Degree Days  
Heating Degree Days 37    
Moisture  
Dew Point 16 °F    
Average Humidity 58    
Maximum Humidity 85    
Minimum Humidity 33    
Precipitation  
Precipitation 0.00 in - - ()
Sea Level Pressure  
Sea Level Pressure 29.70 in    
Wind  
Wind Speed 4 mph (SSW)    
Max Wind Speed 7 mph    
Max Gust Speed -    
Visibility 10 miles    
Events      
Averages and records for this station are not official NWS values.
T = Trace of Precipitation, MM = Missing Value Source: NWS Daily Summary

Daily Weather History Graph

Daily Weather History Graph

Search for Another Location

Airport or City:

Trip Planner

Search our weather history database for the weather conditions in past years. The results will help you decide how hot, cold, wet, or windy it might be!

Date:

Astronomy

Mar. 21, 2013 Rise Set
Actual Time 6:39 AM EDT 6:52 PM EDT
Civil Twilight 6:11 AM EDT 7:21 PM EDT
Nautical Twilight 5:37 AM EDT 7:55 PM EDT
Astronomical Twilight 5:02 AM EDT 8:30 PM EDT
Moon 1:09 PM EDT (3/21) 3:09 AM EDT (3/21)
Length of Visible Light 13h 10m
Length of Day
12h 12m
Waxing Gibbous, 68% of the Moon is Illuminated
Mar 21
Waxing Gibbous
Mar 27
Full
Apr 3
Last Quarter
Apr 10
New
Apr 18
First Quarter

Hourly Weather History & Observations

Time (EDT) Temp. Windchill Dew Point Humidity Pressure Visibility Wind Dir Wind Speed Gust Speed Precip Events Conditions
12:53 AM 30.0 °F 24.1 °F 19.0 °F 64% 29.74 in 10.0 mi SW 5.8 mph - N/A   Clear
1:53 AM 28.9 °F 23.9 °F 18.0 °F 64% 29.74 in 10.0 mi SW 4.6 mph - N/A   Clear
2:53 AM 28.9 °F 22.8 °F 17.1 °F 61% 29.74 in 10.0 mi Variable 5.8 mph - N/A   Clear
3:53 AM 28.0 °F 22.8 °F 17.1 °F 63% 29.75 in 10.0 mi WSW 4.6 mph - N/A   Clear
4:53 AM 27.0 °F 21.6 °F 15.1 °F 61% 29.75 in 10.0 mi WSW 4.6 mph - N/A   Clear
5:53 AM 26.1 °F 21.9 °F 15.1 °F 63% 29.76 in 10.0 mi Variable 3.5 mph - N/A   Clear
6:53 AM 19.0 °F - 12.9 °F 77% 29.77 in 10.0 mi Calm Calm - N/A   Clear
7:53 AM 26.1 °F 21.9 °F 15.1 °F 63% 29.77 in 10.0 mi WSW 3.5 mph - N/A   Clear
8:53 AM 28.9 °F 22.8 °F 15.1 °F 56% 29.77 in 10.0 mi Variable 5.8 mph - N/A   Partly Cloudy
9:53 AM 32.0 °F - 15.1 °F 50% 29.76 in 10.0 mi Calm Calm - N/A   Overcast
10:53 AM 35.1 °F 31.0 °F 12.0 °F 39% 29.75 in 10.0 mi Variable 4.6 mph - N/A   Overcast
11:53 AM 36.0 °F 32.1 °F 10.0 °F 34% 29.74 in 10.0 mi South 4.6 mph - N/A   Clear
12:53 PM 37.9 °F - 12.0 °F 35% 29.72 in 10.0 mi Calm Calm - N/A   Mostly Cloudy
1:53 PM 37.0 °F 31.6 °F 14.0 °F 39% 29.70 in 10.0 mi SE 6.9 mph - N/A   Mostly Cloudy
2:53 PM 37.0 °F 33.3 °F 10.0 °F 33% 29.68 in 10.0 mi Variable 4.6 mph - N/A   Overcast
3:53 PM 37.0 °F 31.6 °F 12.0 °F 36% 29.66 in 10.0 mi South 6.9 mph - N/A   Overcast
4:53 PM 37.0 °F 33.3 °F 16.0 °F 42% 29.64 in 10.0 mi South 4.6 mph - N/A   Overcast
5:53 PM 35.1 °F 32.2 °F 18.0 °F 50% 29.64 in 10.0 mi Variable 3.5 mph - N/A   Overcast
6:53 PM 33.1 °F - 19.0 °F 56% 29.65 in 10.0 mi Calm Calm - N/A   Overcast
7:53 PM 28.9 °F - 21.0 °F 72% 29.64 in 10.0 mi Calm Calm - N/A   Overcast
8:53 PM 26.1 °F - 21.0 °F 81% 29.64 in 10.0 mi Calm Calm - N/A   Clear
9:53 PM 24.1 °F - 19.9 °F 84% 29.63 in 10.0 mi Calm Calm - N/A   Clear
10:53 PM 23.0 °F - 19.0 °F 85% 29.62 in 10.0 mi Calm Calm - N/A   Clear
11:53 PM 21.0 °F - 17.1 °F 85% 29.62 in 10.0 mi Calm Calm - N/A   Clear